Skip Page Navigation
NASA JPL Caltech
NASA Logo - Jet Propulsion Laboratory + View the NASA Portal
+ Center for Near-Earth Object Studies
JPL Home Earth Solar System Stars & Galaxies Technology
JPL Solar System Dynamics
BODIES ORBITS EPHEMERIDES TOOLS PHYSICAL DATA DISCOVERY FAQ SITE MAP
IMPORTANT: The SSD Announcement email list is now available. Major changes are coming in the near future, including possible hostname and/or URL changes. To be notified of such changes, subscribe to this email list.

Please visit this page for more details.


JPL Small-Body Database Browser
Search: [ help ]  
324275 (2006 CH10)
Classification: Main-belt Asteroid          SPK-ID: 2324275
Ephemeris | Orbit Diagram | Orbital Elements | Mission Design | Physical Parameters | Discovery Circumstances | Close-Approach Data ]

[ show orbit diagram ]
Orbital Elements at Epoch 2458600.5 (2019-Apr-27.0) TDB
Reference: JPL 14 (heliocentric ecliptic J2000)
 Element Value Uncertainty (1-sigma)   Units 
e .08100612468380881 4.796e-08  
a 3.00379774516745 4.6477e-08 au
q 2.760471730497472 1.5071e-07 au
i 8.79875855784265 6.4786e-06 deg
node 181.3658436958559 3.6515e-05 deg
peri 119.7595747174366 6.0205e-05 deg
M 43.0365705267803 5.3551e-05 deg
tp 2458373.178971269033
(2018-Sep-11.67897127)
0.00027982 TDB
period 1901.53558569971
5.21
4.4133e-05
1.208e-07
d
yr
n .1893206746733223 4.394e-09 deg/d
Q 3.247123759837429 5.0242e-08 au
  Orbit Determination Parameters
   # obs. used (total)      236  
   data-arc span      5865 days (16.06 yr)  
   first obs. used      2002-06-01  
   last obs. used      2018-06-22  
   planetary ephem.      DE431  
   SB-pert. ephem.      SB431-N16  
   condition code      0  
   norm. resid. RMS      .65839  
   source      ORB  
   producer      Otto Matic  
   solution date      2019-Jul-14 06:49:06  

Additional Information
 Earth MOID = 1.75814 au 
 Jupiter MOID = 1.97246 au 
 T_jup = 3.229 
[ show covariance matrix ]

Ephemeris | Orbit Diagram | Orbital Elements | Mission Design | Physical Parameters | Discovery Circumstances | Close-Approach Data ]

Physical Parameter Table
Parameter Symbol Value Units Sigma Reference Notes
absolute magnitude H 15.5   n/a MPO455391  

324275 (2006 CH10)          Discovered 2006-Feb-04 by Young, J. W. at Wrightwood
Reference: 20120406/Numbers.arcLast Updated: 2012-04-09

[ show close-approach data ]
Alternate Designations
 2006 CH10 = 2003 SO11 = 2007 GJ75 
Ephemeris | Orbit Diagram | Orbital Elements | Mission Design | Physical Parameters | Discovery Circumstances | Close-Approach Data ]
ABOUT SSD CREDITS/AWARDS PRIVACY/COPYRIGHT GLOSSARY LINKS
FirstGov 2019-Oct-20 12:54 UT
(server date/time)  
NASA Home Page
Site Manager:   Ryan S. Park
Webmaster  Alan B. Chamberlin